Current Weather Conditions: station 62135

sailwx.info

Wind from 260

Air temperature 13.4° C
Dewpoint 10.0° C

Last reported at 2019-Sep-16 01:00 UTC.
Time now 2019-Sep-16 02:45 UTC

Location: N 54°12' E 001°36'.
View on Google Maps.

See reports from other nearby stations

  
Tides and Currents Weather Stations Pressure Air Temp Water Temp Dewpoint Dewpoint Depression Visibility Wind Speed Wind Dir Waves Ship Positions
date/time (UTC)wind fromknots sea level pressurealtimeterstation pressurevisibilityair tempwater tempwave heightnotes
2019-Sep-16 01:00 260 13.4
2019-Sep-16 00:00 260 13.3
2019-Sep-15 23:00 270 13.4
2019-Sep-15 22:00 290 13.3
2019-Sep-15 21:00 340 13.3
2019-Sep-15 20:00 300 13.4
2019-Sep-15 19:00 310 13.3
2019-Sep-15 18:00 330 13.3
2019-Sep-15 17:00 300 13.7
2019-Sep-15 16:00 290 13.4
2019-Sep-15 15:00 300 13.9
2019-Sep-15 14:00 290 14.0
2019-Sep-15 13:00 290 14.2
2019-Sep-15 12:00 280 14.4
2019-Sep-15 11:00 270 14.2
2019-Sep-15 10:00 280 14.4
2019-Sep-15 09:00 270 14.5
2019-Sep-15 08:00 270 15.0
2019-Sep-15 07:00 260 15.3
2019-Sep-15 06:00 260 15.4
2019-Sep-15 05:00 250 15.4
2019-Sep-15 04:00 250 15.5
2019-Sep-15 03:00 240 15.5
2019-Sep-15 02:00 240 16.0
2019-Sep-15 01:00 230 16.1
2019-Sep-15 00:00 230 16.4
2019-Sep-14 23:00 220 16.5
2019-Sep-14 22:00 210 16.2
2019-Sep-14 21:00 210 15.9
2019-Sep-14 20:00 200 15.9
2019-Sep-14 19:00 200 15.4
2019-Sep-14 18:00 180 15.2
2019-Sep-14 17:00 190 15.5
2019-Sep-14 16:00 190 15.4
2019-Sep-14 15:00 190 15.2
2019-Sep-14 14:00 200 15.0
2019-Sep-14 13:00 200 14.9
2019-Sep-14 12:00 210 14.8
2019-Sep-14 11:00 210 14.8
2019-Sep-14 10:00 210 14.9
2019-Sep-14 09:00 220 14.8
2019-Sep-14 08:00 220 15.0
2019-Sep-14 07:00 230 15.0
2019-Sep-14 06:00 230 13.8
2019-Sep-14 05:00 240 13.5
2019-Sep-14 04:00 250 13.5
2019-Sep-14 03:00 250 13.2
2019-Sep-14 02:00 250 13.2